Tracking 30970 objects as of 3-Jul-2025
HD Live streaming from Space Station
objects crossing your sky now

GORIZONT 6

Track GORIZONT 6 now!
GORIZONT 6 is classified as:


NORAD ID: 13624
Int'l Code: 1982-103A
Perigee: 35,817.9 km
Apogee: 35,829.7 km
Inclination: 8.1 °
Period: 1,437.6 minutes
Semi major axis: 42194 km
RCS: 3.1622 m2 (large)
Launch date: October 20, 1982
Source: Commonwealth of Independent States (former USSR) (CIS)
Launch site: TYURATAM MISSILE AND SPACE COMPLEX (TTMTR)
Your satellite tracking list
PEGASUS DEB
Track 1 satellite(s)




NASA's NSSDC Master Catalog

Two Line Element Set (TLE):
1 13624U 82103A   25183.90093780 -.00000015  00000-0  00000-0 0  9992
2 13624   8.0992 304.4133 0001400 321.8308 225.5025  1.00164637117440
Source of the keplerian elements: AFSPC